Time,TemperatureF,DewpointF,PressureIn,WindDirection,WindDirectionDegrees,WindSpeedMPH,WindSpeedGustMPH,Humidity,HourlyPrecipIn,Conditions,Clouds,dailyrainin,SoftwareType,DateUTC
2013-09-11 00:00:00,74.0,68.5,30.08,SSW,196,1.0,1.0,83,0.00,,,0.00,Wunderground v.1.15,2013-09-11 05:00:00,
2013-09-11 00:05:00,74.0,68.5,30.08,SSW,197,2.0,3.0,83,0.00,,,0.00,Wunderground v.1.15,2013-09-11 05:05:00,
2013-09-11 00:10:00,73.9,68.4,30.07,SSW,198,3.0,4.0,83,0.00,,,0.00,Wunderground v.1.15,2013-09-11 05:10:00,
2013-09-11 00:15:00,73.7,68.6,30.07,SSW,199,4.0,4.0,84,0.00,,,0.00,Wunderground v.1.15,2013-09-11 05:15:00,
2013-09-11 00:25:00,73.6,68.8,30.08,SSW,198,3.0,3.0,85,0.00,,,0.00,Wunderground v.1.15,2013-09-11 05:25:00,
2013-09-11 00:30:00,73.6,68.8,30.08,SSW,199,3.0,3.0,85,0.00,,,0.00,Wunderground v.1.15,2013-09-11 05:30:00,
2013-09-11 00:40:00,73.5,68.7,30.08,SSW,199,2.0,3.0,85,0.00,,,0.00,Wunderground v.1.15,2013-09-11 05:40:00,
2013-09-11 00:45:00,73.5,68.7,30.08,SSW,199,1.0,3.0,85,0.00,,,0.00,Wunderground v.1.15,2013-09-11 05:45:00,
2013-09-11 00:55:00,73.4,68.6,30.08,SSW,199,1.0,4.0,85,0.00,,,0.00,Wunderground v.1.15,2013-09-11 05:55:00,
2013-09-11 01:05:00,73.2,68.4,30.08,SSW,199,3.0,3.0,85,0.00,,,0.00,Wunderground v.1.15,2013-09-11 06:05:00,
2013-09-11 01:10:00,73.2,68.4,30.08,SSW,199,3.0,3.0,85,0.00,,,0.00,Wunderground v.1.15,2013-09-11 06:10:00,
2013-09-11 01:20:00,73.0,68.2,30.07,SSW,199,2.0,2.0,85,0.00,,,0.00,Wunderground v.1.15,2013-09-11 06:20:00,
2013-09-11 01:25:00,73.0,68.6,30.07,SSW,199,2.0,4.0,86,0.00,,,0.00,Wunderground v.1.15,2013-09-11 06:25:00,
2013-09-11 01:35:00,72.8,68.4,30.07,SSW,200,3.0,5.0,86,0.00,,,0.00,Wunderground v.1.15,2013-09-11 06:35:00,
2013-09-11 01:45:00,72.9,68.5,30.07,SSW,199,3.0,3.0,86,0.00,,,0.00,Wunderground v.1.15,2013-09-11 06:45:00,
2013-09-11 01:55:00,72.9,68.5,30.08,SSW,200,3.0,5.0,86,0.00,,,0.00,Wunderground v.1.15,2013-09-11 06:55:00,
2013-09-11 02:00:00,72.9,68.5,30.08,SSW,202,4.0,4.0,86,0.00,,,0.00,Wunderground v.1.15,2013-09-11 07:00:00,
2013-09-11 02:10:00,73.0,68.9,30.08,SSW,207,5.0,7.0,87,0.00,,,0.00,Wunderground v.1.15,2013-09-11 07:10:00,
2013-09-11 02:15:00,73.2,68.8,30.08,SSW,208,5.0,7.0,86,0.00,,,0.00,Wunderground v.1.15,2013-09-11 07:15:00,
2013-09-11 02:25:00,73.3,68.9,30.08,SSW,207,5.0,6.0,86,0.00,,,0.00,Wunderground v.1.15,2013-09-11 07:25:00,
2013-09-11 02:35:00,73.5,69.1,30.07,SSW,210,6.0,8.0,86,0.00,,,0.00,Wunderground v.1.15,2013-09-11 07:35:00,
2013-09-11 02:45:00,73.6,68.8,30.08,SSW,205,6.0,6.0,85,0.00,,,0.00,Wunderground v.1.15,2013-09-11 07:45:00,
2013-09-11 02:50:00,73.6,68.8,30.07,SSW,205,6.0,6.0,85,0.00,,,0.00,Wunderground v.1.15,2013-09-11 07:50:00,
2013-09-11 02:55:00,73.7,68.9,30.08,SSW,206,5.0,6.0,85,0.00,,,0.00,Wunderground v.1.15,2013-09-11 07:55:00,
2013-09-11 03:05:00,73.6,68.8,30.08,SSW,205,5.0,5.0,85,0.00,,,0.00,Wunderground v.1.15,2013-09-11 08:05:00,
2013-09-11 03:10:00,73.5,68.7,30.08,SSW,207,5.0,6.0,85,0.00,,,0.00,Wunderground v.1.15,2013-09-11 08:10:00,
2013-09-11 03:20:00,73.4,68.6,30.08,SSW,207,3.0,3.0,85,0.00,,,0.00,Wunderground v.1.15,2013-09-11 08:20:00,
2013-09-11 03:25:00,73.3,68.5,30.08,SSW,207,2.0,3.0,85,0.00,,,0.00,Wunderground v.1.15,2013-09-11 08:25:00,
2013-09-11 03:35:00,73.1,68.3,30.08,SSW,194,2.0,2.0,85,0.00,,,0.00,Wunderground v.1.15,2013-09-11 08:35:00,
2013-09-11 03:40:00,73.0,68.2,30.08,SSW,194,0.0,0.0,85,0.00,,,0.00,Wunderground v.1.15,2013-09-11 08:40:00,
2013-09-11 03:50:00,72.7,67.9,30.08,SSW,194,0.0,0.0,85,0.00,,,0.00,Wunderground v.1.15,2013-09-11 08:50:00,
2013-09-11 04:00:00,72.4,67.6,30.08,SSW,194,0.0,0.0,85,0.00,,,0.00,Wunderground v.1.15,2013-09-11 09:00:00,
2013-09-11 04:05:00,72.2,67.8,30.09,SSW,194,0.0,0.0,86,0.00,,,0.00,Wunderground v.1.15,2013-09-11 09:05:00,
2013-09-11 04:15:00,71.9,67.5,30.09,SSW,194,0.0,0.0,86,0.00,,,0.00,Wunderground v.1.15,2013-09-11 09:15:00,
2013-09-11 04:20:00,71.7,67.3,30.09,SSW,194,0.0,0.0,86,0.00,,,0.00,Wunderground v.1.15,2013-09-11 09:20:00,
2013-09-11 04:30:00,71.4,67.3,30.08,SSW,194,0.0,0.0,87,0.00,,,0.00,Wunderground v.1.15,2013-09-11 09:30:00,
2013-09-11 04:40:00,71.3,67.2,30.09,SSW,194,0.0,4.0,87,0.00,,,0.00,Wunderground v.1.15,2013-09-11 09:40:00,
2013-09-11 04:45:00,71.2,67.1,30.09,SSW,194,1.0,4.0,87,0.00,,,0.00,Wunderground v.1.15,2013-09-11 09:45:00,
2013-09-11 04:50:00,71.2,67.5,30.09,SSW,194,1.0,1.0,88,0.00,,,0.00,Wunderground v.1.15,2013-09-11 09:50:00,
2013-09-11 05:00:00,70.9,66.8,30.09,SSW,194,0.0,0.0,87,0.00,,,0.00,Wunderground v.1.15,2013-09-11 10:00:00,
2013-09-11 05:10:00,70.7,67.0,30.09,SSW,193,1.0,3.0,88,0.00,,,0.00,Wunderground v.1.15,2013-09-11 10:10:00,
2013-09-11 05:20:00,70.6,66.9,30.09,South,191,2.0,3.0,88,0.00,,,0.00,Wunderground v.1.15,2013-09-11 10:20:00,
2013-09-11 05:25:00,70.5,66.8,30.09,SSW,192,2.0,4.0,88,0.00,,,0.00,Wunderground v.1.15,2013-09-11 10:25:00,
2013-09-11 05:30:00,70.4,66.7,30.09,SSW,192,3.0,3.0,88,0.00,,,0.00,Wunderground v.1.15,2013-09-11 10:30:00,
2013-09-11 05:40:00,70.1,66.4,30.10,SSW,192,3.0,3.0,88,0.00,,,0.00,Wunderground v.1.15,2013-09-11 10:40:00,
2013-09-11 05:50:00,69.9,66.5,30.10,SSW,192,1.0,1.0,89,0.00,,,0.00,Wunderground v.1.15,2013-09-11 10:50:00,
2013-09-11 06:00:00,70.0,66.6,30.11,SSW,192,0.0,0.0,89,0.00,,,0.00,Wunderground v.1.15,2013-09-11 11:00:00,
2013-09-11 06:05:00,70.0,66.6,30.11,SSW,192,1.0,2.0,89,0.00,,,0.00,Wunderground v.1.15,2013-09-11 11:05:00,
2013-09-11 06:10:00,70.0,66.6,30.11,SSW,192,1.0,3.0,89,0.00,,,0.00,Wunderground v.1.15,2013-09-11 11:10:00,
2013-09-11 06:20:00,69.9,66.5,30.11,SSW,192,3.0,4.0,89,0.00,,,0.00,Wunderground v.1.15,2013-09-11 11:20:00,
2013-09-11 06:30:00,69.8,66.4,30.11,SSW,192,4.0,4.0,89,0.00,,,0.00,Wunderground v.1.15,2013-09-11 11:30:00,
2013-09-11 06:40:00,69.6,66.2,30.12,SSW,192,3.0,4.0,89,0.00,,,0.00,Wunderground v.1.15,2013-09-11 11:40:00,
2013-09-11 06:45:00,69.5,66.1,30.12,SSW,192,3.0,5.0,89,0.00,,,0.00,Wunderground v.1.15,2013-09-11 11:45:00,
2013-09-11 06:55:00,69.6,66.5,30.12,SSW,192,3.0,3.0,90,0.00,,,0.00,Wunderground v.1.15,2013-09-11 11:55:00,
2013-09-11 07:00:00,69.7,66.6,30.12,SSW,192,4.0,4.0,90,0.00,,,0.00,Wunderground v.1.15,2013-09-11 12:00:00,
2013-09-11 07:10:00,70.0,66.9,30.12,SSW,199,4.0,4.0,90,0.00,,,0.00,Wunderground v.1.15,2013-09-11 12:10:00,
2013-09-11 07:20:00,70.3,67.2,30.12,SSW,210,5.0,5.0,90,0.00,,,0.00,Wunderground v.1.15,2013-09-11 12:20:00,
2013-09-11 07:25:00,70.5,67.4,30.12,SSW,213,5.0,5.0,90,0.00,,,0.00,Wunderground v.1.15,2013-09-11 12:25:00,
2013-09-11 07:35:00,71.0,67.9,30.12,SW,221,5.0,7.0,90,0.00,,,0.00,Wunderground v.1.15,2013-09-11 12:35:00,
2013-09-11 07:40:00,71.2,68.1,30.12,SW,216,5.0,5.0,90,0.00,,,0.00,Wunderground v.1.15,2013-09-11 12:40:00,
2013-09-11 07:50:00,71.6,68.2,30.12,SW,221,5.0,5.0,89,0.00,,,0.00,Wunderground v.1.15,2013-09-11 12:50:00,
2013-09-11 07:55:00,71.9,68.5,30.12,SW,216,5.0,5.0,89,0.00,,,0.00,Wunderground v.1.15,2013-09-11 12:55:00,
2013-09-11 08:05:00,72.4,68.6,30.12,SW,215,7.0,7.0,88,0.00,,,0.00,Wunderground v.1.15,2013-09-11 13:05:00,
2013-09-11 08:10:00,72.7,68.6,30.12,SW,224,6.0,6.0,87,0.00,,,0.00,Wunderground v.1.15,2013-09-11 13:10:00,
2013-09-11 08:15:00,73.0,68.6,30.12,SW,225,6.0,6.0,86,0.00,,,0.00,Wunderground v.1.15,2013-09-11 13:15:00,
2013-09-11 08:25:00,73.7,68.9,30.12,SW,229,5.0,6.0,85,0.00,,,0.00,Wunderground v.1.15,2013-09-11 13:25:00,
2013-09-11 08:30:00,74.3,69.1,30.12,SW,227,6.0,8.0,84,0.00,,,0.00,Wunderground v.1.15,2013-09-11 13:30:00,
2013-09-11 08:40:00,75.8,69.9,30.12,SW,228,6.0,7.0,82,0.00,,,0.00,Wunderground v.1.15,2013-09-11 13:40:00,
2013-09-11 08:45:00,76.7,70.1,30.12,SW,227,6.0,7.0,80,0.00,,,0.00,Wunderground v.1.15,2013-09-11 13:45:00,
2013-09-11 08:50:00,77.4,70.0,30.13,SW,225,7.0,7.0,78,0.00,,,0.00,Wunderground v.1.15,2013-09-11 13:50:00,
2013-09-11 09:00:00,78.5,69.9,30.12,SW,219,6.0,7.0,75,0.00,,,0.00,Wunderground v.1.15,2013-09-11 14:00:00,
2013-09-11 09:05:00,78.9,70.3,30.12,WSW,240,6.0,7.0,75,0.00,,,0.00,Wunderground v.1.15,2013-09-11 14:05:00,
2013-09-11 09:15:00,79.6,69.4,30.12,SW,229,7.0,9.0,71,0.00,,,0.00,Wunderground v.1.15,2013-09-11 14:15:00,
2013-09-11 09:20:00,80.0,69.7,30.12,SW,228,7.0,7.0,71,0.00,,,0.00,Wunderground v.1.15,2013-09-11 14:20:00,
2013-09-11 09:30:00,80.6,69.9,30.12,SW,223,6.0,6.0,70,0.00,,,0.00,Wunderground v.1.15,2013-09-11 14:30:00,
2013-09-11 09:35:00,81.0,69.9,30.12,SW,234,5.0,7.0,69,0.00,,,0.00,Wunderground v.1.15,2013-09-11 14:35:00,
2013-09-11 09:45:00,81.8,69.3,30.11,SW,227,7.0,8.0,66,0.00,,,0.00,Wunderground v.1.15,2013-09-11 14:45:00,
2013-09-11 09:50:00,82.2,69.3,30.11,WSW,238,6.0,8.0,65,0.00,,,0.00,Wunderground v.1.15,2013-09-11 14:50:00,
2013-09-11 10:00:00,83.0,69.6,30.11,SW,229,7.0,7.0,64,0.00,,,0.00,Wunderground v.1.15,2013-09-11 15:00:00,
2013-09-11 10:05:00,83.7,69.3,30.11,SW,229,7.0,9.0,62,0.00,,,0.00,Wunderground v.1.15,2013-09-11 15:05:00,
2013-09-11 10:15:00,85.4,69.4,30.11,WSW,241,7.0,10.0,59,0.00,,,0.00,Wunderground v.1.15,2013-09-11 15:15:00,
2013-09-11 10:20:00,86.4,69.4,30.11,SW,232,7.0,7.0,57,0.00,,,0.00,Wunderground v.1.15,2013-09-11 15:20:00,
2013-09-11 10:30:00,88.1,68.8,30.11,SW,229,6.0,6.0,53,0.00,,,0.00,Wunderground v.1.15,2013-09-11 15:30:00,
2013-09-11 10:35:00,89.0,68.5,30.11,SW,234,7.0,9.0,51,0.00,,,0.00,Wunderground v.1.15,2013-09-11 15:35:00,
2013-09-11 10:45:00,90.4,69.2,30.11,SW,228,6.0,8.0,50,0.00,,,0.00,Wunderground v.1.15,2013-09-11 15:45:00,
2013-09-11 10:50:00,91.1,68.1,30.11,SW,219,7.0,7.0,47,0.00,,,0.00,Wunderground v.1.15,2013-09-11 15:50:00,
2013-09-11 11:00:00,92.2,69.1,30.10,West,265,6.0,6.0,47,0.00,,,0.00,Wunderground v.1.15,2013-09-11 16:00:00,
2013-09-11 11:05:00,92.8,67.7,30.10,WSW,247,6.0,6.0,44,0.00,,,0.00,Wunderground v.1.15,2013-09-11 16:05:00,
2013-09-11 11:15:00,94.1,66.8,30.10,WSW,250,7.0,9.0,41,0.00,,,0.00,Wunderground v.1.15,2013-09-11 16:15:00,
2013-09-11 11:20:00,94.5,67.2,30.10,WSW,255,8.0,11.0,41,0.00,,,0.00,Wunderground v.1.15,2013-09-11 16:20:00,
2013-09-11 11:30:00,95.2,67.8,30.10,WSW,249,7.0,8.0,41,0.00,,,0.00,Wunderground v.1.15,2013-09-11 16:30:00,
2013-09-11 11:35:00,95.5,65.9,30.09,West,271,7.0,8.0,38,0.00,,,0.00,Wunderground v.1.15,2013-09-11 16:35:00,
2013-09-11 11:45:00,96.1,66.4,30.09,West,261,8.0,8.0,38,0.00,,,0.00,Wunderground v.1.15,2013-09-11 16:45:00,
2013-09-11 11:50:00,96.4,65.9,30.09,WSW,247,8.0,8.0,37,0.00,,,0.00,Wunderground v.1.15,2013-09-11 16:50:00,
2013-09-11 12:00:00,96.6,66.1,30.08,SW,219,8.0,9.0,37,0.00,,,0.00,Wunderground v.1.15,2013-09-11 17:00:00,
2013-09-11 12:05:00,96.6,66.1,30.08,SW,221,9.0,14.0,37,0.00,,,0.00,Wunderground v.1.15,2013-09-11 17:05:00,
2013-09-11 12:10:00,96.5,64.4,30.08,WSW,237,10.0,10.0,35,0.00,,,0.00,Wunderground v.1.15,2013-09-11 17:10:00,
2013-09-11 12:20:00,96.7,65.4,30.08,SW,236,8.0,9.0,36,0.00,,,0.00,Wunderground v.1.15,2013-09-11 17:20:00,
2013-09-11 12:25:00,96.7,66.9,30.08,WSW,242,9.0,9.0,38,0.00,,,0.00,Wunderground v.1.15,2013-09-11 17:25:00,
2013-09-11 12:35:00,96.7,64.5,30.08,WSW,242,9.0,13.0,35,0.00,,,0.00,Wunderground v.1.15,2013-09-11 17:35:00,
2013-09-11 12:40:00,96.7,64.5,30.08,WSW,249,10.0,10.0,35,0.00,,,0.00,Wunderground v.1.15,2013-09-11 17:40:00,
2013-09-11 12:50:00,96.8,64.6,30.08,WSW,243,10.0,10.0,35,0.00,,,0.00,Wunderground v.1.15,2013-09-11 17:50:00,
2013-09-11 12:55:00,96.9,64.7,30.07,WSW,242,9.0,11.0,35,0.00,,,0.00,Wunderground v.1.15,2013-09-11 17:55:00,
2013-09-11 13:05:00,97.1,65.7,30.07,SW,232,9.0,9.0,36,0.00,,,0.00,Wunderground v.1.15,2013-09-11 18:05:00,
2013-09-11 13:10:00,97.1,63.2,30.07,WSW,249,10.0,10.0,33,0.00,,,0.00,Wunderground v.1.15,2013-09-11 18:10:00,
2013-09-11 13:20:00,97.2,63.3,30.07,WSW,242,10.0,11.0,33,0.00,,,0.00,Wunderground v.1.15,2013-09-11 18:20:00,
2013-09-11 13:25:00,97.3,64.2,30.07,WSW,239,10.0,11.0,34,0.00,,,0.00,Wunderground v.1.15,2013-09-11 18:25:00,
2013-09-11 13:35:00,97.3,62.5,30.06,West,263,10.0,14.0,32,0.00,,,0.00,Wunderground v.1.15,2013-09-11 18:35:00,
2013-09-11 13:40:00,97.1,62.3,30.06,SW,229,10.0,10.0,32,0.00,,,0.00,Wunderground v.1.15,2013-09-11 18:40:00,
2013-09-11 13:50:00,97.2,61.5,30.06,West,277,9.0,9.0,31,0.00,,,0.00,Wunderground v.1.15,2013-09-11 18:50:00,
2013-09-11 13:55:00,97.2,61.5,30.06,WSW,248,10.0,10.0,31,0.00,,,0.00,Wunderground v.1.15,2013-09-11 18:55:00,
2013-09-11 14:05:00,96.9,60.3,30.06,West,261,9.0,12.0,30,0.00,,,0.00,Wunderground v.1.15,2013-09-11 19:05:00,
2013-09-11 14:10:00,97.0,64.0,30.06,WSW,248,9.0,9.0,34,0.00,,,0.00,Wunderground v.1.15,2013-09-11 19:10:00,
2013-09-11 14:20:00,97.0,61.4,30.05,West,265,9.0,11.0,31,0.00,,,0.00,Wunderground v.1.15,2013-09-11 19:20:00,
2013-09-11 14:25:00,96.9,63.0,30.05,WSW,244,9.0,12.0,33,0.00,,,0.00,Wunderground v.1.15,2013-09-11 19:25:00,
2013-09-11 14:35:00,96.6,61.0,30.05,SSW,207,10.0,12.0,31,0.00,,,0.00,Wunderground v.1.15,2013-09-11 19:35:00,
2013-09-11 14:40:00,96.4,61.7,30.05,WSW,251,11.0,13.0,32,0.00,,,0.00,Wunderground v.1.15,2013-09-11 19:40:00,
2013-09-11 14:45:00,96.1,61.5,30.05,SW,215,11.0,13.0,32,0.00,,,0.00,Wunderground v.1.15,2013-09-11 19:45:00,
2013-09-11 14:55:00,95.6,61.9,30.04,WSW,240,11.0,13.0,33,0.00,,,0.00,Wunderground v.1.15,2013-09-11 19:55:00,
2013-09-11 15:00:00,95.5,62.7,30.04,SW,225,10.0,10.0,34,0.00,,,0.00,Wunderground v.1.15,2013-09-11 20:00:00,
2013-09-11 15:15:00,94.9,60.4,30.04,SW,225,11.0,12.0,32,0.00,,,0.00,Wunderground v.1.15,2013-09-11 20:15:00,
2013-09-11 15:20:00,94.7,62.0,30.04,SW,233,10.0,11.0,34,0.00,,,0.00,Wunderground v.1.15,2013-09-11 20:20:00,
2013-09-11 15:25:00,94.6,62.7,30.03,WSW,238,8.0,11.0,35,0.00,,,0.00,Wunderground v.1.15,2013-09-11 20:25:00,
2013-09-11 15:35:00,94.2,62.4,30.03,WSW,247,10.0,12.0,35,0.00,,,0.00,Wunderground v.1.15,2013-09-11 20:35:00,
2013-09-11 15:40:00,94.0,60.5,30.03,SW,233,10.0,10.0,33,0.00,,,0.00,Wunderground v.1.15,2013-09-11 20:40:00,
2013-09-11 15:50:00,93.8,61.2,30.03,WSW,246,8.0,11.0,34,0.00,,,0.00,Wunderground v.1.15,2013-09-11 20:50:00,
2013-09-11 15:55:00,93.8,62.8,30.02,WSW,243,8.0,11.0,36,0.00,,,0.00,Wunderground v.1.15,2013-09-11 20:55:00,
2013-09-11 16:05:00,93.4,62.5,30.03,WSW,246,9.0,9.0,36,0.00,,,0.00,Wunderground v.1.15,2013-09-11 21:05:00,
2013-09-11 16:10:00,93.3,62.4,30.03,WSW,250,9.0,12.0,36,0.00,,,0.00,Wunderground v.1.15,2013-09-11 21:10:00,
2013-09-11 16:20:00,93.0,60.5,30.02,SW,230,8.0,9.0,34,0.00,,,0.00,Wunderground v.1.15,2013-09-11 21:20:00,
2013-09-11 16:25:00,92.8,61.9,30.02,SW,227,9.0,10.0,36,0.00,,,0.00,Wunderground v.1.15,2013-09-11 21:25:00,
2013-09-11 16:30:00,92.6,60.1,30.02,SW,228,11.0,11.0,34,0.00,,,0.00,Wunderground v.1.15,2013-09-11 21:30:00,
2013-09-11 16:40:00,92.2,61.4,30.02,SW,232,9.0,9.0,36,0.00,,,0.00,Wunderground v.1.15,2013-09-11 21:40:00,
2013-09-11 16:45:00,92.0,60.4,30.02,SW,214,9.0,12.0,35,0.00,,,0.00,Wunderground v.1.15,2013-09-11 21:45:00,
2013-09-11 16:55:00,91.6,60.1,30.02,WSW,237,10.0,13.0,35,0.00,,,0.00,Wunderground v.1.15,2013-09-11 21:55:00,
2013-09-11 17:00:00,91.4,59.9,30.02,SW,236,11.0,16.0,35,0.00,,,0.00,Wunderground v.1.15,2013-09-11 22:00:00,
2013-09-11 17:10:00,91.1,60.4,30.02,SW,233,10.0,10.0,36,0.00,,,0.00,Wunderground v.1.15,2013-09-11 22:10:00,
2013-09-11 17:15:00,90.9,60.3,30.02,WSW,244,10.0,10.0,36,0.00,,,0.00,Wunderground v.1.15,2013-09-11 22:15:00,
2013-09-11 17:25:00,90.6,60.0,30.02,WSW,244,9.0,11.0,36,0.00,,,0.00,Wunderground v.1.15,2013-09-11 22:25:00,
2013-09-11 17:30:00,90.4,60.6,30.02,SW,229,7.0,7.0,37,0.00,,,0.00,Wunderground v.1.15,2013-09-11 22:30:00,
2013-09-11 17:40:00,90.0,63.8,30.02,SW,227,6.0,7.0,42,0.00,,,0.00,Wunderground v.1.15,2013-09-11 22:40:00,
2013-09-11 17:45:00,89.7,64.2,30.02,SW,225,6.0,7.0,43,0.00,,,0.00,Wunderground v.1.15,2013-09-11 22:45:00,
2013-09-11 17:55:00,89.3,65.2,30.02,SW,227,6.0,6.0,45,0.00,,,0.00,Wunderground v.1.15,2013-09-11 22:55:00,
2013-09-11 18:00:00,89.0,65.5,30.02,SW,229,5.0,5.0,46,0.00,,,0.00,Wunderground v.1.15,2013-09-11 23:00:00,
2013-09-11 18:10:00,88.3,64.3,30.02,SW,225,6.0,6.0,45,0.00,,,0.00,Wunderground v.1.15,2013-09-11 23:10:00,
2013-09-11 18:15:00,88.1,64.7,30.02,SW,225,6.0,6.0,46,0.00,,,0.00,Wunderground v.1.15,2013-09-11 23:15:00,
2013-09-11 18:25:00,87.3,65.2,30.02,SW,221,5.0,6.0,48,0.00,,,0.00,Wunderground v.1.15,2013-09-11 23:25:00,
2013-09-11 18:30:00,86.9,64.8,30.02,SW,221,5.0,5.0,48,0.00,,,0.00,Wunderground v.1.15,2013-09-11 23:30:00,
2013-09-11 18:35:00,86.4,65.0,30.02,SW,221,5.0,5.0,49,0.00,,,0.00,Wunderground v.1.15,2013-09-11 23:35:00,
2013-09-11 18:45:00,85.4,65.2,30.02,SW,221,5.0,6.0,51,0.00,,,0.00,Wunderground v.1.15,2013-09-11 23:45:00,
2013-09-11 18:50:00,84.8,65.2,30.02,SW,221,4.0,4.0,52,0.00,,,0.00,Wunderground v.1.15,2013-09-11 23:50:00,
2013-09-11 19:00:00,83.6,64.7,30.02,SW,221,4.0,4.0,53,0.00,,,0.00,Wunderground v.1.15,2013-09-12 00:00:00,
2013-09-11 19:05:00,83.0,64.6,30.02,SW,221,3.0,4.0,54,0.00,,,0.00,Wunderground v.1.15,2013-09-12 00:05:00,
2013-09-11 19:15:00,82.0,64.2,30.02,SW,221,4.0,4.0,55,0.00,,,0.00,Wunderground v.1.15,2013-09-12 00:15:00,
2013-09-11 19:20:00,81.6,64.4,30.02,SW,221,4.0,4.0,56,0.00,,,0.00,Wunderground v.1.15,2013-09-12 00:20:00,
2013-09-11 19:30:00,80.7,64.5,30.02,SW,221,4.0,4.0,58,0.00,,,0.00,Wunderground v.1.15,2013-09-12 00:30:00,
2013-09-11 19:35:00,80.2,64.6,30.02,SW,221,4.0,4.0,59,0.00,,,0.00,Wunderground v.1.15,2013-09-12 00:35:00,
2013-09-11 19:45:00,79.4,64.8,30.02,SW,221,4.0,4.0,61,0.00,,,0.00,Wunderground v.1.15,2013-09-12 00:45:00,
2013-09-11 19:50:00,79.0,64.9,30.03,SW,221,4.0,4.0,62,0.00,,,0.00,Wunderground v.1.15,2013-09-12 00:50:00,
2013-09-11 19:55:00,78.7,64.6,30.03,SW,221,3.0,4.0,62,0.00,,,0.00,Wunderground v.1.15,2013-09-12 00:55:00,
2013-09-11 20:05:00,78.0,64.8,30.03,SW,221,4.0,4.0,64,0.00,,,0.00,Wunderground v.1.15,2013-09-12 01:05:00,
2013-09-11 20:10:00,77.8,64.6,30.03,SW,221,4.0,4.0,64,0.00,,,0.00,Wunderground v.1.15,2013-09-12 01:10:00,
2013-09-11 20:20:00,77.5,64.8,30.03,SW,221,4.0,4.0,65,0.00,,,0.00,Wunderground v.1.15,2013-09-12 01:20:00,
2013-09-11 20:25:00,77.3,65.1,30.03,SW,221,4.0,4.0,66,0.00,,,0.00,Wunderground v.1.15,2013-09-12 01:25:00,
2013-09-11 20:35:00,76.8,65.0,30.04,SW,221,3.0,4.0,67,0.00,,,0.00,Wunderground v.1.15,2013-09-12 01:35:00,
2013-09-11 20:40:00,76.6,65.2,30.04,SW,221,3.0,4.0,68,0.00,,,0.00,Wunderground v.1.15,2013-09-12 01:40:00,
2013-09-11 20:50:00,76.3,65.4,30.04,SW,221,3.0,3.0,69,0.00,,,0.00,Wunderground v.1.15,2013-09-12 01:50:00,
2013-09-11 21:00:00,75.8,65.3,30.04,SW,221,3.0,3.0,70,0.00,,,0.00,Wunderground v.1.15,2013-09-12 02:00:00,
2013-09-11 21:05:00,75.7,65.2,30.04,SW,221,3.0,3.0,70,0.00,,,0.00,Wunderground v.1.15,2013-09-12 02:05:00,
2013-09-11 21:10:00,75.5,65.4,30.03,SW,221,3.0,3.0,71,0.00,,,0.00,Wunderground v.1.15,2013-09-12 02:10:00,
2013-09-11 21:20:00,75.2,65.1,30.03,SW,221,1.0,1.0,71,0.00,,,0.00,Wunderground v.1.15,2013-09-12 02:20:00,
2013-09-11 21:25:00,75.0,65.0,30.04,SW,221,1.0,1.0,71,0.00,,,0.00,Wunderground v.1.15,2013-09-12 02:25:00,
2013-09-11 21:35:00,74.9,65.3,30.04,SW,222,0.0,0.0,72,0.00,,,0.00,Wunderground v.1.15,2013-09-12 02:35:00,
2013-09-11 21:40:00,74.9,65.3,30.03,SW,222,0.0,0.0,72,0.00,,,0.00,Wunderground v.1.15,2013-09-12 02:40:00,
2013-09-11 21:50:00,74.9,65.3,30.03,SW,222,0.0,0.0,72,0.00,,,0.00,Wunderground v.1.15,2013-09-12 02:50:00,
2013-09-11 21:55:00,74.8,65.6,30.03,SW,222,0.0,0.0,73,0.00,,,0.00,Wunderground v.1.15,2013-09-12 02:55:00,
2013-09-11 22:05:00,74.7,65.5,30.03,SW,222,0.0,0.0,73,0.00,,,0.00,Wunderground v.1.15,2013-09-12 03:05:00,
2013-09-11 22:10:00,74.6,65.4,30.03,SW,222,0.0,0.0,73,0.00,,,0.00,Wunderground v.1.15,2013-09-12 03:10:00,
2013-09-11 22:20:00,74.5,65.7,30.03,SW,222,0.0,0.0,74,0.00,,,0.00,Wunderground v.1.15,2013-09-12 03:20:00,
2013-09-11 22:25:00,74.5,65.3,30.02,SW,222,0.0,0.0,73,0.00,,,0.00,Wunderground v.1.15,2013-09-12 03:25:00,
2013-09-11 22:35:00,74.6,65.8,30.02,SW,222,0.0,0.0,74,0.00,,,0.00,Wunderground v.1.15,2013-09-12 03:35:00,
2013-09-11 22:40:00,74.6,65.4,30.02,SW,222,0.0,0.0,73,0.00,,,0.00,Wunderground v.1.15,2013-09-12 03:40:00,
2013-09-11 22:50:00,74.8,65.2,30.02,SW,222,0.0,0.0,72,0.00,,,0.00,Wunderground v.1.15,2013-09-12 03:50:00,
2013-09-11 23:00:00,75.1,65.5,30.02,SW,222,0.0,0.0,72,0.00,,,0.00,Wunderground v.1.15,2013-09-12 04:00:00,
2013-09-11 23:05:00,75.3,65.6,30.02,SW,222,0.0,0.0,72,0.00,,,0.00,Wunderground v.1.15,2013-09-12 04:05:00,
2013-09-11 23:10:00,75.5,65.4,30.02,SW,222,0.0,0.0,71,0.00,,,0.00,Wunderground v.1.15,2013-09-12 04:10:00,
2013-09-11 23:15:00,75.6,66.3,30.01,SW,222,0.0,0.0,73,0.00,,,0.00,Wunderground v.1.15,2013-09-12 04:15:00,
2013-09-11 23:20:00,75.7,66.0,30.01,SW,222,1.0,1.0,72,0.00,,,0.00,Wunderground v.1.15,2013-09-12 04:20:00,
2013-09-11 23:30:00,75.7,66.0,30.02,SW,222,0.0,0.0,72,0.00,,,0.00,Wunderground v.1.15,2013-09-12 04:30:00,
2013-09-11 23:35:00,75.7,66.0,30.01,SW,222,0.0,0.0,72,0.00,,,0.00,Wunderground v.1.15,2013-09-12 04:35:00,
2013-09-11 23:45:00,75.6,66.3,30.01,SW,222,0.0,0.0,73,0.00,,,0.00,Wunderground v.1.15,2013-09-12 04:45:00,
2013-09-11 23:50:00,75.6,65.9,30.02,SW,222,0.0,1.0,72,0.00,,,0.00,Wunderground v.1.15,2013-09-12 04:50:00,
2013-09-11 23:55:00,75.5,66.2,30.02,SW,227,0.0,1.0,73,0.00,,,0.00,Wunderground v.1.15,2013-09-12 04:55:00,